• In Czech Republic
  • List of Countries
  • For 7 days
  • Water Temperature
  • Satellite Maps
  • Weather Map
  • Weather Widgets
  • user-avatar
    Login

    Hourly Weather Lagoda

    Today, 22 August, Wednesday

    Time Temperature Precipitation Wind Pressure Humidity
    00:00 +18°C° 0 mm 3 mps 743 mmHg 67%
    01:00 +18°C° 0 mm 3 mps 743 mmHg 67%
    02:00 +18°C° 0 mm 4 mps 743 mmHg 67%
    03:00 +17°C° 0 mm 4 mps 742 mmHg 67%
    04:00 +17°C° 0 mm 4 mps 742 mmHg 68%
    05:00 +18°C° 0 mm 4 mps 742 mmHg 68%
    06:00 +18°C° 0 mm 4 mps 742 mmHg 68%
    07:00 +19°C° 0 mm 5 mps 742 mmHg 63%
    08:00 +21°C° 0 mm 5 mps 742 mmHg 57%
    09:00 +23°C° 0 mm 6 mps 742 mmHg 51%
    10:00 +23°C° 0.1 mm 6 mps 742 mmHg 51%
    11:00 +23°C° 0.1 mm 6 mps 742 mmHg 50%
    12:00 +24°C° 0.1 mm 6 mps 742 mmHg 50%
    13:00 +22°C° 0.7 mm 6 mps 742 mmHg 60%
    14:00 +20°C° 0.7 mm 5 mps 741 mmHg 71%
    15:00 +17°C° 0.7 mm 5 mps 741 mmHg 81%
    16:00 +18°C° 0.7 mm 4 mps 741 mmHg 85%
    17:00 +17°C° 0.7 mm 4 mps 741 mmHg 88%
    18:00 +17°C° 0.7 mm 3 mps 742 mmHg 92%
    19:00 +16°C° 0.3 mm 3 mps 742 mmHg 92%
    20:00 +14°C° 0.3 mm 3 mps 742 mmHg 92%
    21:00 +14°C° 0.3 mm 3 mps 742 mmHg 92%
    22:00 +13°C° 0.1 mm 3 mps 743 mmHg 92%
    23:00 +12°C° 0.1 mm 3 mps 743 mmHg 92%

    Tomorrow, 23 August, Thursday

    Time Temperature Precipitation Wind Pressure Humidity
    00:00 +12°C° 0.1 mm 3 mps 743 mmHg 92%
    01:00 +11°C° 0 mm 4 mps 744 mmHg 92%
    02:00 +11°C° 0 mm 4 mps 744 mmHg 93%
    03:00 +11°C° 0 mm 4 mps 744 mmHg 94%
    04:00 +11°C° 0 mm 4 mps 745 mmHg 93%
    05:00 +11°C° 0 mm 4 mps 745 mmHg 92%
    06:00 +10°C° 0 mm 5 mps 746 mmHg 90%
    07:00 +12°C° 0 mm 5 mps 746 mmHg 85%
    08:00 +13°C° 0 mm 5 mps 746 mmHg 79%
    09:00 +15°C° 0 mm 5 mps 747 mmHg 73%
    10:00 +15°C° 0.1 mm 6 mps 747 mmHg 68%
    11:00 +16°C° 0.1 mm 6 mps 747 mmHg 64%
    12:00 +17°C° 0.1 mm 6 mps 747 mmHg 59%
    13:00 +17°C° 0.1 mm 6 mps 747 mmHg 57%
    14:00 +17°C° 0.1 mm 6 mps 748 mmHg 56%
    15:00 +17°C° 0.1 mm 6 mps 748 mmHg 54%
    16:00 +16°C° 0 mm 6 mps 748 mmHg 58%
    17:00 +15°C° 0 mm 5 mps 748 mmHg 62%
    18:00 +14°C° 0 mm 4 mps 748 mmHg 67%
    19:00 +13°C° 0 mm 3 mps 748 mmHg 69%
    20:00 +12°C° 0 mm 3 mps 749 mmHg 72%
    21:00 +11°C° 0 mm 3 mps 749 mmHg 74%
    22:00 +10°C° 0 mm 3 mps 749 mmHg 75%
    23:00 +10°C° 0 mm 3 mps 749 mmHg 76%

    Day after tomorrow, 24 August, Friday

    Time Temperature Precipitation Wind Pressure Humidity
    00:00 +10°C° 0 mm 3 mps 749 mmHg 78%
    01:00 +10°C° 0 mm 3 mps 749 mmHg 79%
    02:00 +9°C° 0 mm 3 mps 749 mmHg 81%
    03:00 +9°C° 0 mm 3 mps 749 mmHg 83%
    04:00 +10°C° 0 mm 3 mps 749 mmHg 82%
    05:00 +10°C° 0 mm 3 mps 749 mmHg 81%
    06:00 +11°C° 0 mm 3 mps 749 mmHg 80%
    07:00 +12°C° 0 mm 4 mps 749 mmHg 75%
    08:00 +14°C° 0 mm 4 mps 749 mmHg 70%
    09:00 +15°C° 0 mm 5 mps 749 mmHg 65%
    10:00 +16°C° 0 mm 5 mps 749 mmHg 64%
    11:00 +17°C° 0 mm 5 mps 749 mmHg 63%
    12:00 +17°C° 0 mm 5 mps 749 mmHg 61%
    13:00 +19°C° 0 mm 5 mps 749 mmHg 62%
    14:00 +19°C° 0 mm 5 mps 749 mmHg 63%
    15:00 +20°C° 0 mm 5 mps 749 mmHg 64%
    16:00 +19°C° 0 mm 4 mps 749 mmHg 68%
    17:00 +18°C° 0 mm 4 mps 748 mmHg 72%
    18:00 +18°C° 0 mm 3 mps 748 mmHg 75%
    19:00 +17°C° 0 mm 3 mps 748 mmHg 78%
    20:00 +16°C° 0 mm 3 mps 749 mmHg 80%
    21:00 +16°C° 0 mm 2 mps 749 mmHg 83%
    22:00 +15°C° 0 mm 2 mps 749 mmHg 86%
    23:00 +14°C° 0 mm 2 mps 749 mmHg 89%

    25 August, Saturday

    Time Temperature Precipitation Wind Pressure Humidity
    00:00 +14°C° 0 mm 1 mps 749 mmHg 92%
    01:00 +13°C° 0 mm 1 mps 749 mmHg 93%
    02:00 +13°C° 0 mm 1 mps 749 mmHg 93%
    03:00 +13°C° 0 mm 1 mps 749 mmHg 94%
    04:00 +13°C° 0 mm 1 mps 749 mmHg 93%
    05:00 +14°C° 0 mm 1 mps 749 mmHg 92%
    06:00 +14°C° 0 mm 1 mps 750 mmHg 91%
    07:00 +16°C° 0 mm 2 mps 750 mmHg 85%
    08:00 +18°C° 0 mm 2 mps 750 mmHg 79%
    09:00 +19°C° 0 mm 3 mps 750 mmHg 73%
    10:00 +20°C° 0.1 mm 3 mps 750 mmHg 72%
    11:00 +20°C° 0.1 mm 3 mps 750 mmHg 72%
    12:00 +21°C° 0.1 mm 3 mps 750 mmHg 71%
    13:00 +21°C° 0.1 mm 3 mps 750 mmHg 70%
    14:00 +21°C° 0.1 mm 3 mps 750 mmHg 69%
    15:00 +21°C° 0.1 mm 3 mps 750 mmHg 68%
    16:00 +21°C° 0 mm 2 mps 750 mmHg 72%
    17:00 +20°C° 0 mm 2 mps 749 mmHg 76%
    18:00 +20°C° 0 mm 1 mps 749 mmHg 80%
    19:00 +19°C° 0 mm 1 mps 749 mmHg 83%
    20:00 +18°C° 0 mm 1 mps 749 mmHg 86%
    21:00 +16°C° 0 mm 1 mps 749 mmHg 90%
    22:00 +15°C° 0 mm 1 mps 749 mmHg 90%
    23:00 +15°C° 0 mm 1 mps 749 mmHg 91%

    26 August, Sunday

    Time Temperature Precipitation Wind Pressure Humidity
    00:00 +15°C° 0 mm 1 mps 749 mmHg 91%
    01:00 +15°C° 0 mm 1 mps 749 mmHg 92%
    02:00 +14°C° 0 mm 1 mps 749 mmHg 93%
    03:00 +14°C° 0 mm 1 mps 749 mmHg 93%
    04:00 +15°C° 0 mm 1 mps 749 mmHg 93%
    05:00 +15°C° 0 mm 2 mps 749 mmHg 93%
    06:00 +15°C° 0 mm 2 mps 749 mmHg 92%
    07:00 +17°C° 0 mm 3 mps 749 mmHg 84%
    08:00 +18°C° 0 mm 3 mps 749 mmHg 77%
    09:00 +20°C° 0 mm 4 mps 750 mmHg 69%
    10:00 +21°C° 0 mm 4 mps 749 mmHg 64%
    11:00 +21°C° 0 mm 4 mps 749 mmHg 59%
    12:00 +22°C° 0 mm 4 mps 749 mmHg 55%
    13:00 +22°C° 0 mm 4 mps 749 mmHg 53%
    14:00 +22°C° 0 mm 4 mps 749 mmHg 52%
    15:00 +22°C° 0 mm 4 mps 749 mmHg 51%
    16:00 +21°C° 0 mm 4 mps 749 mmHg 57%
    17:00 +20°C° 0 mm 3 mps 749 mmHg 62%
    18:00 +18°C° 0 mm 3 mps 749 mmHg 68%
    19:00 +17°C° 0 mm 2 mps 749 mmHg 71%
    20:00 +16°C° 0 mm 2 mps 749 mmHg 73%
    21:00 +14°C° 0 mm 2 mps 749 mmHg 76%
    22:00 +14°C° 0 mm 2 mps 749 mmHg 77%
    23:00 +14°C° 0 mm 2 mps 749 mmHg 77%

    27 August, Monday

    Time Temperature Precipitation Wind Pressure Humidity
    00:00 +13°C° 0 mm 2 mps 749 mmHg 78%
    01:00 +13°C° 0 mm 2 mps 750 mmHg 79%
    02:00 +12°C° 0 mm 2 mps 750 mmHg 80%
    03:00 +12°C° 0 mm 2 mps 750 mmHg 80%
    04:00 +12°C° 0 mm 2 mps 750 mmHg 80%
    05:00 +13°C° 0 mm 2 mps 750 mmHg 80%
    06:00 +13°C° 0 mm 2 mps 750 mmHg 79%
    07:00 +15°C° 0 mm 2 mps 750 mmHg 74%
    08:00 +17°C° 0 mm 3 mps 750 mmHg 69%
    09:00 +19°C° 0 mm 3 mps 750 mmHg 63%
    10:00 +20°C° 0 mm 3 mps 750 mmHg 61%
    11:00 +21°C° 0 mm 3 mps 750 mmHg 58%
    12:00 +22°C° 0 mm 3 mps 750 mmHg 55%
    13:00 +22°C° 0 mm 3 mps 750 mmHg 56%
    14:00 +22°C° 0 mm 3 mps 750 mmHg 56%
    15:00 +22°C° 0 mm 3 mps 749 mmHg 56%
    16:00 +21°C° 0 mm 3 mps 749 mmHg 62%
    17:00 +20°C° 0 mm 3 mps 749 mmHg 68%
    18:00 +19°C° 0 mm 2 mps 749 mmHg 73%
    19:00 +18°C° 0 mm 2 mps 750 mmHg 77%
    20:00 +17°C° 0 mm 2 mps 750 mmHg 81%
    21:00 +16°C° 0 mm 2 mps 750 mmHg 85%
    22:00 +15°C° 0 mm 2 mps 750 mmHg 86%
    23:00 +15°C° 0 mm 2 mps 750 mmHg 88%
    Show more